📊 Raw Sensor Data

Showing records 47626 to 47650 of 85,088 total

ID Distance (ft) Battery V Battery A Int Temp (°F) Int Humid (%) Ext Temp (°F) Solar V RSSI SNR Time Stamp
37475 -- 3.84 -5 47 42 49 0.00 -81 7 04/11/2025 02:15 AM
37474 -- 3.78 -5 48 42 49 0.00 -82 7 04/11/2025 02:00 AM
37473 -- 3.84 -5 48 42 49 0.00 -82 8 04/11/2025 01:45 AM
37472 -- 3.78 -5 48 42 50 0.00 -82 7 04/11/2025 01:30 AM
37471 -- 3.84 -5 48 43 49 0.00 -82 7 04/11/2025 01:15 AM
37470 -- 3.79 -5 49 43 49 0.00 -82 8 04/11/2025 01:00 AM
37469 -- 3.84 -5 50 42 50 0.00 -81 7 04/11/2025 12:45 AM
37468 -- 3.79 -5 52 42 52 0.00 -79 8 04/11/2025 12:30 AM
37467 -- 3.79 -5 53 42 53 0.00 -80 7 04/11/2025 12:15 AM
37466 -- 3.84 -5 54 42 55 0.00 -81 8 04/11/2025 12:00 AM
37465 -- 3.79 -5 54 42 54 0.00 -79 8 04/10/2025 11:46 PM
37464 -- 3.79 -5 54 42 55 0.00 -80 7 04/10/2025 11:30 PM
37463 -- 3.79 -5 54 42 57 0.00 -82 7 04/10/2025 11:15 PM
37462 -- 3.79 -5 55 42 56 0.00 -81 7 04/10/2025 11:00 PM
37461 -- 3.79 -5 55 42 56 0.00 -79 8 04/10/2025 10:45 PM
37460 -- 3.79 -5 56 42 57 0.00 -79 8 04/10/2025 10:31 PM
37459 -- 3.79 -5 57 42 58 0.00 -79 7 04/10/2025 10:15 PM
37458 -- 3.78 -5 57 43 59 0.00 -82 6 04/10/2025 09:45 PM
37457 -- 3.85 -5 58 44 59 0.10 -78 8 04/10/2025 09:15 PM
37456 -- 3.85 -5 59 45 60 0.10 -80 8 04/10/2025 09:00 PM
37455 -- 3.85 -5 60 45 60 0.00 -78 6 04/10/2025 08:45 PM
37454 15.5 3.85 -5 61 46 62 0.00 -78 8 04/10/2025 08:30 PM
37453 -- 3.79 -5 62 46 62 0.00 -80 7 04/10/2025 08:15 PM
37452 -- 3.86 -5 63 47 63 0.00 -79 7 04/10/2025 08:00 PM
37451 -- 3.86 -5 64 48 64 0.80 -78 7 04/10/2025 07:45 PM